Flag for United Kingdom Weather past 2 weeks in Newport (Isle of Wight), England, United Kingdom

Now
68 °F

Mild.


Feels Like: 68 °F
Forecast: 59 / 68 °F
Wind: 14 mph from West

Location: Solent M. R. S. C.

Current Time: Sep 30, 2014 at 3:44:34 PM

Latest Report: Sep 30, 2014 at 2:00 PM


Visibility: N/A

Pressure: 30.24 "Hg

Humidity: 79%

Dew point: 62 °F

Location of Newport (Isle of Wight)Location

Historic Weather in Newport (Isle of Wight) — Graph

°F

Newport (Isle of Wight) temperature yesterday

Maximum temperature yesterday: 66 °F (at 3:00 PM)
Minimum temperature yesterday: 57 °F (at 8:00 AM)
Average temperature yesterday: 61 °F

Past Weeks' High & Low Weather Summary

 TemperatureHumidityPressure
High74 °F (Sep 16, 5:00 PM)100% (Sep 20, 7:00 AM)30.34 "Hg (Sep 20, 7:00 AM)
Low45 °F (Sep 25, 6:00 AM)44% (Sep 24, 5:00 PM)29.75 "Hg (Sep 18, 6:00 AM)
Average62 °F84%30.07 "Hg
* Reported Sep 15 2:00 PM — Sep 30 2:00 PM, Newport (Isle of Wight), Weather by CustomWeather, © 2014

Note: Actual official high and low records may vary slightly from our data, if they occured in-between our weather recording intervals... More about our weather records

Advertising

Newport (Isle of Wight) weather history for previous 24 hours

 ConditionsComfort  
Time TempWeatherWind HumidityBarometerVisibility
2:00 PM
Sep 30
68 °FMild.14 mph79%30.24 "HgN/A
1:00 PM68 °FMild.15 mph84%30.25 "HgN/A
12:00 PM67 °FMild.13 mph83%30.24 "HgN/A
11:00 AM66 °FMild.9 mph88%30.24 "HgN/A
10:00 AM63 °FMild.9 mph95%30.23 "HgN/A
9:00 AM62 °FCool.6 mph94%30.22 "HgN/A
8:00 AM62 °FMild.7 mph95%30.21 "HgN/A
7:00 AM62 °FCool.6 mph95%30.20 "HgN/A
6:00 AM62 °FCool.8 mph94%30.19 "HgN/A
5:00 AM61 °FCool.8 mph93%30.19 "HgN/A
4:00 AM61 °FCool.9 mph94%30.19 "HgN/A
3:00 AM62 °FCool.12 mph90%30.19 "HgN/A
2:00 AM62 °FCool.12 mph89%30.19 "HgN/A
1:00 AM62 °FCool.15 mph90%30.18 "HgN/A
12:00 AM62 °FMild.14 mph90%30.18 "HgN/A
11:00 PM
Sep 29
62 °FCool.15 mph92%30.17 "HgN/A
10:00 PM62 °FCool.12 mph93%30.17 "HgN/A
9:00 PM62 °FCool.13 mph93%30.16 "HgN/A
8:00 PM63 °FMild.14 mph93%30.15 "HgN/A
7:00 PM63 °FMild.14 mph90%30.14 "HgN/A
5:00 PM65 °FMild.16 mph81%30.13 "HgN/A
4:00 PM66 °FMild.15 mph82%30.12 "HgN/A
3:00 PM66 °FMild.15 mph81%30.12 "HgN/A
Weather by CustomWeather, © 2014

See weather overviewHow to use our weather pages